Zurück zum Katalog

BEIDOU 3M18

AktivNavigationMEO
NORAD 43707·PAYLOAD·🇨🇳 China

Gestartet Nov 18, 2018 von Xichang Satellite Launch Center

Loading…

Nächste Überflüge (nächste 24 Stunden)

TLE

AktuellSource: CelesTrak SupGP

Epoche: Sep 12, 2026, 00:00 UTC

1 43707C 18093B   26255.00000000  .00000000  00000+0  00000+0 0  2555
2 43707  54.1669 179.3457 0007448 339.7571 271.8335  1.86226776    13

Verfolge BEIDOU 3M18 in Echtzeit mit AllMySat

Download on the App Store